Theta_e
304 303 303 302 301 300 300 300 300 298 298 298 297 296 295 295 295 295 295 293 292 294
304 304 302 301 301 301 300 299 299 298 297 296 294 294 295 294 293 294 295 295 294 294
304 304 302 302 300 299 299 299 297 296 295 295 294 294 292 291 292 292 294 294 292 293
303 303 302 300 299 299 300 298 297 295 294 294 293 293 293 292 291 289 290 291 291 290
303 301 298 298 298 299 298 297 296 295 293 292 292 293 291 290 290 291 289 289 290 289
300 298 298 298 297 297 296 297 294 293 292 291 291 291 291 291 291 289 289 289 289 289
298 298 297 297 297 296 296 295 294 293 292 292 291 291 291 291 291 290 290 291 291 289
297 297 296 296 296 296 295 294 293 292 292 292 292 292 292 291 291 291 291 292 291 292
295 294 293 293 294 293 292 292 292 291 291 291 292 291 290 290 289 290 290 290 291 290
292 291 292 291 290 290 290 290 290 291 291 292 293 290 290 289 289 288 288 288 288 288
291 290 290 290 289 289 289 290 290 291 291 292 293 290 289 289 291 290 289 288 288 287
291 290 290 289 289 289 289 289 291 290 291 292 292 290 289 289 289 289 289 290 291 290
292 291 289 290 290 290 289 289 289 290 292 290 291 290 289 289 289 289 289 290 291 288
291 290 291 291 291 290 289 288 289 289 290 290 289 290 288 288 288 288 288 288 290 291
Wind_Speed
9 6 7 7 8 7 7 8 10 9 10 11 10 9 9 9 9 11 9 10 9 7
8 9 8 10 8 6 8 8 10 11 11 12 11 10 10 7 9 10 11 11 11 9
10 9 8 8 8 8 8 10 10 10 12 12 9 9 7 7 9 11 8 8 11 11
10 8 8 8 9 9 9 10 10 10 11 12 10 9 8 10 9 11 11 11 10 12
9 9 8 8 9 8 9 9 11 10 11 10 11 10 10 10 11 12 12 12 12 12
10 9 10 7 8 7 7 8 9 10 10 11 10 11 11 11 12 11 11 11 12 15
10 9 9 9 7 8 9 10 10 10 11 9 9 10 10 11 11 11 12 14 15 14
11 10 11 11 9 10 8 8 9 10 10 10 9 7 12 13 13 13 15 15 15 14
12 11 11 10 11 10 10 5 10 9 10 10 7 9 13 14 12 14 15 14 15 14
12 11 11 11 11 10 9 9 8 9 10 10 10 11 17 19 12 11 11 11 10 9
10 11 11 12 12 10 8 10 8 9 10 10 9 13 18 20 12 10 9 8 9 8
9 10 10 11 11 10 10 9 9 9 9 10 10 13 18 18 11 9 9 10 8 7
10 10 10 10 11 10 10 10 9 10 11 11 13 15 19 19 9 9 7 10 9 6
10 10 10 10 10 11 11 10 11 11 10 12 13 15 19 23 10 8 7 7 8 8
Wind_Direction
332 315 313 310 312 304 313 331 326 330 320 323 318 311 302 296 294 295 287 276 269 277
325 319 314 310 308 319 330 320 336 329 327 327 319 312 304 294 283 289 290 292 294 278
338 343 322 311 326 331 318 320 321 331 330 306 310 307 304 298 295 293 290 285 282 286
348 333 324 325 322 313 325 324 324 330 314 314 320 316 308 304 291 291 294 298 293 284
334 340 332 315 325 331 329 339 332 322 323 321 310 315 305 296 295 290 284 278 275 271
327 330 329 319 324 342 335 320 319 325 313 315 316 304 292 286 286 282 282 284 284 283
337 339 328 312 318 344 332 317 329 329 318 313 311 309 304 308 296 281 277 273 272 268
345 346 340 329 341 328 328 317 326 322 321 319 317 310 320 305 302 295 287 280 274 267
356 344 347 337 335 339 330 337 318 324 321 320 319 309 304 303 297 295 292 289 285 286
1 351 351 353 346 349 340 325 332 316 325 324 315 346 316 320 307 295 284 285 288 284
357 353 9 356 351 349 337 331 328 331 327 318 333 328 324 329 317 306 310 307 293 287
353 348 352 349 352 350 340 338 339 331 323 330 328 331 334 337 323 315 323 305 307 317
357 353 354 352 351 358 354 348 340 338 340 340 336 338 342 340 326 319 322 314 319 256
1 356 355 360 357 360 355 356 358 355 348 346 343 342 343 336 334 328 316 320 325 318